Theta_e
315 315 315 314 315 315 315 316 316 317 317 316 316 314 312 311 310 299 296 306 310 318 315 297 296 296 297 293 293 296 287 282 283 285 285 285 284 285 286 284 283 284 284 287 292
315 315 315 314 314 315 315 316 316 317 317 316 315 314 311 311 298 291 306 316 316 316 297 293 293 294 291 290 290 291 285 284 286 284 283 285 284 284 282 282 284 284 287 290 291
314 314 314 314 314 314 315 316 316 317 317 317 315 315 311 305 293 289 311 314 314 309 297 295 294 294 289 288 287 285 284 286 287 286 287 285 284 285 282 281 284 284 285 288 288
314 314 314 314 314 314 315 315 316 317 317 316 316 317 311 296 289 291 311 312 311 301 297 295 294 290 286 286 288 284 287 288 288 286 286 284 284 283 283 283 286 287 287 287 287
315 315 314 314 314 314 315 316 316 317 316 315 316 317 299 291 288 295 308 302 296 296 292 292 289 288 285 285 287 284 285 287 286 285 284 285 283 282 283 285 286 287 287 286 286
315 315 315 314 314 315 315 315 316 316 316 315 317 315 295 289 294 294 294 294 294 293 291 291 289 289 286 284 284 285 286 285 285 285 285 283 282 282 284 284 285 286 285 285 286
316 315 314 313 314 314 313 313 314 315 315 314 316 298 292 290 292 292 294 292 293 292 290 290 291 290 286 283 286 286 283 283 284 284 284 283 282 280 284 284 284 285 285 285 286
316 315 314 313 313 314 313 312 313 315 316 316 316 295 288 295 291 294 293 293 293 294 292 291 293 289 286 284 285 283 284 282 282 284 284 284 282 286 285 283 283 284 284 285 286
315 314 313 313 313 313 314 313 314 315 316 316 298 293 289 301 293 293 292 291 291 293 293 295 293 287 286 285 283 282 278 279 282 283 283 282 281 286 284 282 282 282 282 284 284
314 313 312 312 312 314 315 314 313 306 300 301 297 293 293 291 293 293 293 292 291 292 293 291 286 282 279 281 277 278 277 279 279 281 280 279 280 285 285 282 281 281 281 283 284
314 313 312 312 313 314 305 300 299 295 292 288 288 289 291 293 294 295 292 292 294 291 285 286 281 276 276 277 279 278 276 276 280 281 279 278 279 283 285 282 280 279 280 282 283
313 312 312 313 313 310 297 293 291 292 289 291 291 291 291 291 291 295 294 291 290 284 285 284 277 279 281 281 279 278 276 276 280 281 277 277 279 282 283 282 282 281 281 282 282
312 312 312 313 311 298 292 291 296 296 292 292 291 290 290 293 288 290 290 289 286 284 281 280 279 282 281 279 278 277 276 275 275 277 278 276 280 281 281 281 282 282 282 283 284
311 311 312 312 301 294 290 295 295 295 291 292 292 292 293 291 289 292 290 288 287 282 281 280 281 281 280 278 277 277 278 277 276 274 272 276 276 280 281 280 281 280 281 282 283
311 310 311 307 295 291 293 295 294 298 279 292 292 295 295 291 290 292 291 291 283 283 283 281 280 279 280 279 278 279 278 276 276 270 269 276 272 280 281 280 280 280 281 281 281
310 310 308 298 294 293 296 295 299 288 276 290 292 289 290 290 291 292 289 290 287 285 283 279 281 279 278 279 279 280 278 275 274 272 270 269 272 277 279 279 279 280 282 283 284
309 308 301 297 293 295 296 299 289 279 290 287 286 288 286 285 288 288 283 278 279 282 281 283 279 279 280 279 279 278 275 272 273 271 273 272 270 278 283 284 281 282 282 283 283
309 305 301 297 295 296 299 290 280 286 285 287 286 287 285 285 285 286 283 278 278 279 276 277 280 279 279 276 274 276 273 272 268 270 273 274 271 278 281 281 282 283 283 284 286
307 297 298 298 296 298 293 282 282 284 284 284 286 284 285 286 283 284 278 275 275 274 279 276 281 277 278 277 277 277 273 275 267 265 266 273 277 281 280 279 282 285 285 285 286
298 298 300 299 296 297 289 285 284 283 284 283 281 283 280 283 282 282 280 278 277 277 276 277 274 279 276 278 276 275 276 272 269 268 268 273 270 277 277 278 281 283 283 284 285
299 299 303 298 298 291 283 280 283 284 285 283 283 280 280 279 280 279 279 280 279 278 278 272 274 279 276 275 272 272 268 269 270 270 267 266 273 278 279 279 279 280 283 282 283
296 289 302 299 289 280 281 283 289 283 284 283 282 281 280 280 279 281 281 282 280 279 275 275 276 271 279 271 269 271 270 269 273 272 266 266 273 279 275 278 274 277 279 282 283
293 294 301 297 282 280 282 284 284 283 282 282 282 282 281 280 281 282 283 281 281 279 279 280 279 278 279 273 272 267 265 264 265 272 267 275 274 277 276 273 275 275 281 283 284
291 287 294 289 285 283 282 285 284 283 283 283 282 282 280 280 282 280 282 280 280 281 286 284 277 279 280 280 279 278 269 265 273 274 269 274 276 282 281 278 278 282 282 282 281
291 285 286 284 286 284 284 284 285 283 282 282 281 282 280 278 282 280 281 280 280 283 281 280 275 273 277 277 273 274 276 272 271 277 271 278 273 279 273 272 281 277 278 279 281
292 290 289 285 286 285 285 285 285 285 284 284 282 286 282 280 285 287 285 283 284 278 278 278 276 275 274 278 270 270 275 272 270 275 275 276 276 283 284 271 272 278 279 278 280
294 295 296 291 285 284 287 288 286 287 289 290 287 286 282 285 288 286 285 284 284 281 277 276 275 274 275 273 275 273 276 269 265 264 269 267 275 266 271 270 273 278 281 280 279
Wind_Speed
7 7 8 9 9 10 11 12 12 12 12 12 12 12 10 12 8 6 10 9 13 22 18 9 3 6 4 5 6 2 6 2 5 6 3 3 3 0 1 4 2 4 4 3 8
7 8 9 9 9 10 11 12 12 12 12 12 12 11 8 8 2 9 10 20 19 18 7 7 7 8 5 5 5 7 5 3 2 2 3 3 2 2 1 2 4 2 3 5 7
8 8 9 9 9 10 11 12 13 13 13 13 12 10 6 4 2 5 20 23 20 16 4 1 2 2 6 4 6 4 4 3 2 2 2 3 1 3 2 4 8 7 7 7 5
8 8 9 9 10 11 11 12 13 13 13 13 11 10 7 1 2 4 21 22 18 10 2 1 3 4 5 5 4 7 5 3 3 2 1 1 3 4 6 5 4 7 6 6 7
10 10 10 10 10 11 12 13 13 14 14 13 10 9 1 8 3 7 18 15 7 6 7 4 7 3 5 4 3 5 2 4 2 2 2 1 4 5 9 8 5 5 6 7 6
11 11 11 11 11 12 12 13 14 14 13 12 11 6 4 8 4 7 10 9 7 6 8 8 4 3 7 4 5 2 4 3 1 1 2 3 2 3 4 4 9 7 7 6 6
11 11 11 12 12 12 13 14 13 12 12 11 10 3 8 3 2 7 8 3 5 4 4 3 1 5 4 4 3 5 2 1 3 3 2 2 0 7 6 0 8 9 7 5 7
12 12 12 12 12 13 13 13 12 11 11 8 8 2 3 2 2 5 8 4 7 3 2 1 4 8 6 2 4 3 4 6 2 8 4 4 9 4 4 6 8 7 6 5 6
13 13 13 12 12 12 12 13 10 10 9 8 1 1 3 0 5 6 5 4 8 3 2 2 5 6 7 4 5 8 1 4 8 5 5 5 10 5 4 6 7 7 7 6 7
14 14 14 13 13 12 12 6 8 6 5 1 3 3 6 6 6 7 4 4 3 4 3 9 7 6 7 7 2 4 5 5 6 4 3 6 18 14 9 9 9 9 8 7 7
15 14 15 13 13 13 5 3 5 5 12 5 1 0 5 9 4 6 5 7 3 11 6 6 11 5 3 4 1 0 2 4 5 2 7 2 11 18 11 4 8 9 8 8 8
15 14 14 12 11 9 4 6 1 2 6 3 0 2 2 2 7 8 9 6 8 6 6 8 5 1 3 2 2 1 3 5 7 4 3 5 16 5 6 2 7 9 8 9 4
16 15 15 13 6 6 6 4 1 2 5 2 1 2 4 5 3 10 8 3 6 7 8 7 0 2 1 3 5 0 1 3 6 10 1 8 6 5 1 2 3 5 6 6 9
16 15 16 12 7 0 4 3 3 1 6 9 6 4 3 1 4 3 3 2 8 3 4 6 1 2 1 2 2 4 2 1 5 6 3 5 5 3 4 4 5 3 3 5 6
16 15 16 10 5 4 0 3 3 2 5 5 6 1 6 7 4 6 3 5 4 3 1 2 5 4 2 1 1 5 2 2 1 4 5 5 5 9 4 6 3 1 1 2 1
15 14 9 6 4 1 3 3 2 10 4 5 4 8 5 6 7 6 7 9 1 2 5 2 1 2 2 3 2 4 1 2 4 3 4 5 4 7 1 4 3 3 6 7 7
12 11 6 1 1 2 2 3 8 8 3 6 5 6 2 6 6 8 7 10 5 7 8 4 1 1 3 4 1 7 5 5 7 6 5 3 4 10 4 2 5 7 8 7 5
9 6 5 2 1 2 2 7 6 2 1 3 2 4 3 6 4 7 3 4 6 4 4 4 8 4 5 4 4 3 5 6 5 2 5 1 7 6 2 6 8 8 6 2 5
3 3 3 3 0 2 6 7 6 2 1 5 4 4 4 3 1 5 4 2 2 1 4 4 7 0 3 2 3 1 2 3 6 0 3 4 8 8 7 5 7 7 2 5 7
3 2 3 1 2 4 8 4 2 0 1 1 2 1 2 5 4 5 0 4 2 4 2 2 5 2 2 1 3 3 1 3 4 2 6 5 7 7 8 10 6 5 7 8 8
4 4 3 2 3 8 5 5 2 2 1 1 3 2 3 2 1 2 2 3 3 4 4 4 4 4 2 3 6 2 3 3 3 4 5 4 9 7 9 8 7 3 8 9 9
3 3 3 1 7 2 3 0 1 1 1 0 2 3 3 0 2 3 3 4 6 7 5 3 5 4 7 1 3 3 6 5 5 5 2 4 11 1 4 8 4 7 9 9 5
3 2 3 3 4 3 2 1 1 1 1 0 1 1 3 2 3 4 3 3 5 4 6 7 2 4 8 3 2 2 3 3 4 2 8 4 9 2 2 3 6 7 10 10 10
4 4 6 7 1 6 2 1 1 1 1 1 1 1 0 3 5 3 3 2 4 3 4 4 2 8 10 8 2 4 6 5 4 4 4 15 13 14 11 7 8 12 10 10 10
5 1 3 3 5 2 2 1 1 2 1 1 1 5 6 2 2 6 3 2 2 4 2 2 6 5 12 11 5 9 18 11 14 17 11 19 11 14 7 6 12 7 9 11 12
4 4 2 1 2 2 0 4 5 2 4 4 5 3 8 7 11 7 5 5 6 3 5 1 4 1 5 13 4 9 21 9 14 19 19 25 29 20 19 5 6 11 11 10 9
1 2 5 2 1 3 4 4 6 5 5 6 10 4 6 14 5 3 3 1 4 10 9 5 3 1 5 3 6 13 13 10 6 6 8 8 15 2 4 6 8 9 9 11 9
Wind_Direction
2 1 2 360 356 351 351 351 347 344 348 348 346 341 339 344 349 25 40 321 327 325 333 301 0 343 46 61 35 91 64 140 172 155 168 190 159 323 46 122 205 206 170 229 130
11 3 358 354 349 346 345 346 341 340 344 346 349 346 344 348 47 54 345 343 334 334 349 10 356 350 47 23 20 65 90 173 357 40 159 164 172 178 163 161 240 218 37 87 126
4 360 352 348 346 343 342 340 337 336 338 341 343 342 334 336 83 328 344 342 337 336 229 275 286 350 62 27 3 17 109 150 22 96 41 134 225 328 164 242 223 198 173 162 165
360 353 344 343 343 339 336 330 332 332 332 331 336 332 330 349 40 294 339 338 337 332 110 27 21 50 64 55 10 86 43 85 168 25 54 177 322 309 203 229 217 162 151 167 182
355 348 343 340 336 331 327 324 323 327 330 331 331 326 329 42 344 292 333 331 346 6 46 41 52 57 84 82 67 73 134 60 77 65 305 350 259 245 251 237 167 150 154 165 186
356 349 343 336 329 325 322 317 315 318 321 329 335 329 66 69 274 317 332 337 2 17 16 33 86 77 90 62 63 82 83 101 95 336 346 303 263 22 269 204 226 177 189 192 203
352 346 340 335 328 322 320 316 310 311 315 320 339 40 62 122 336 326 335 320 357 2 43 40 354 77 135 85 126 135 72 48 12 4 355 326 239 225 247 95 184 185 205 209 230
350 345 339 333 325 319 319 319 310 304 309 310 325 65 94 276 297 342 340 339 352 334 67 14 47 97 55 120 53 37 56 10 28 359 10 38 274 248 158 149 176 193 216 228 252
348 345 339 330 323 320 316 312 302 298 296 302 28 85 12 327 15 322 35 334 304 325 339 342 63 74 28 51 25 11 350 349 323 30 322 34 277 262 152 186 199 211 223 233 258
346 345 341 335 326 319 314 279 305 348 348 60 69 34 23 314 302 329 332 352 358 324 26 40 50 64 23 36 203 320 343 321 260 349 2 262 268 285 268 205 218 222 224 230 239
343 343 341 336 330 331 4 29 26 354 39 82 304 212 323 298 267 353 347 335 17 56 39 13 61 47 347 12 22 105 251 263 266 47 345 234 281 294 309 213 204 221 220 231 236
342 340 337 339 337 1 61 72 60 157 82 7 124 344 273 340 356 343 360 56 44 48 340 32 59 295 294 299 313 237 290 288 282 345 355 329 306 295 325 308 195 200 225 233 233
344 341 337 332 329 39 72 88 340 358 87 10 55 19 322 21 64 321 18 358 56 52 25 92 19 302 327 44 17 355 190 318 254 321 244 320 315 5 286 54 112 183 206 203 213
346 344 341 333 54 150 49 322 354 328 75 328 356 11 347 71 44 294 12 55 35 86 86 92 291 350 27 80 24 310 134 276 290 23 283 19 274 306 326 63 64 65 127 176 195
346 347 347 36 141 60 278 325 322 45 55 313 326 225 321 71 300 6 1 25 67 38 72 316 360 12 60 336 142 259 341 259 95 74 39 335 70 267 329 43 17 75 233 232 325
344 343 352 22 50 31 329 347 48 44 267 344 335 351 25 19 355 316 29 34 79 103 43 105 114 61 298 292 230 327 22 85 56 109 30 258 101 287 212 141 103 56 52 49 44
342 346 34 37 62 322 15 48 38 97 354 326 337 15 352 334 355 29 30 13 46 32 12 342 64 22 25 343 52 32 45 338 358 8 222 193 25 241 261 340 144 105 64 41 350
335 359 14 64 351 34 50 54 76 173 254 2 334 323 40 7 21 8 57 39 46 42 67 56 331 24 356 116 194 20 129 144 247 268 280 7 241 248 191 111 90 83 96 65 322
29 5 44 329 68 71 72 56 195 184 350 353 324 50 341 18 337 52 56 174 230 74 111 36 280 157 38 65 107 300 52 186 103 36 44 242 287 316 151 141 119 125 155 283 285
73 48 351 332 79 63 72 163 194 220 313 186 76 81 309 304 16 42 269 225 200 185 170 192 313 135 122 96 42 117 177 38 4 337 291 285 276 235 196 198 203 25 347 308 276
53 54 284 57 65 49 110 203 183 215 211 62 188 239 223 289 303 294 228 199 196 166 108 129 108 281 126 188 181 26 3 31 130 135 199 289 261 218 208 174 192 246 292 279 280
71 42 309 28 48 36 92 158 148 191 304 25 89 131 209 13 268 269 245 211 159 155 146 214 142 273 254 221 169 160 193 151 138 257 187 173 266 252 200 184 185 262 274 272 297
68 278 318 81 86 26 275 65 123 159 225 193 233 214 198 242 337 218 232 101 153 154 172 180 183 312 307 5 15 194 225 131 116 82 204 184 258 345 319 268 279 275 297 315 328
68 27 336 42 57 122 153 208 247 123 229 158 193 97 154 250 216 286 252 178 190 197 162 166 169 194 248 242 149 248 212 203 166 208 219 227 266 280 271 283 305 313 304 310 297
33 278 184 322 347 66 99 250 228 240 253 190 211 220 174 261 256 226 218 150 164 216 130 182 232 193 269 281 214 250 259 215 203 238 216 270 227 254 248 259 289 272 288 287 282
105 110 356 235 311 330 59 227 198 203 152 226 213 206 178 204 205 250 192 187 205 114 169 164 270 123 257 264 254 258 259 238 218 240 255 259 273 270 279 296 289 270 274 271 276
291 56 106 263 118 88 235 217 217 149 243 217 207 185 213 238 229 239 232 248 179 155 185 176 240 267 257 11 307 282 255 171 187 216 169 179 232 165 280 257 248 269 285 283 281